This demonstration page uses our WeatherBlox Daily Observations layout. Learn more.

Left ArrowRight Arrow

39.51506, -84.39828

Hourly Observations for February 19, 2020

Temp ( °F °C ) Dew Point ( °F °C ) Humidity (%) Winds ( mph kmh ) Pressure ( in mb ) Visibility ( mi km ) Precip ( " mm )
12:15 am 00:15 Clear 32 -0.1 29 -1.7 89 89 NNW 6 9 30.39 1029 7 11.26538 0 0
12:35 am 00:35 Clear 31 -0.5 28 -2 90 90 NNW 5 7 30.4 1029 7 11.26538 0 0
12:55 am 00:55 Clear with Mist and Fog 31 -0.7 28 -2 91 91 NNW 3 6 30.41 1030 7 11.26538 0 0
1:15 am 01:15 Clear with Mist and Fog 31 -0.7 29 -1.9 92 92 Calm 30.41 1030 7 11.26538 0 0
1:35 am 01:35 Clear with Mist and Fog 30 -1.3 28 -2.3 93 93 Calm 30.42 1030 5 8.0467 0 0
1:55 am 01:55 Clear with Mist and Fog 29 -1.9 28 -2.4 96 96 Calm 30.42 1030 4 6.43736 0 0
2:15 am 02:15 Clear with Mist and Fog 27 -2.6 27 -3 97 97 Calm 30.43 1031 4 6.43736 0 0
2:35 am 02:35 Clear with Mist and Fog 27 -3 26 -3.3 98 98 Calm 30.43 1031 3.5 5.63269 0 0
2:55 am 02:55 Mostly Cloudy with Mist and Fog 26 -3.1 26 -3.3 99 99 Calm 30.43 1031 0.75 1.207005 0 0
3:15 am 03:15 Clear with Mist and Fog 26 -3.3 26 -3.5 99 99 Calm 30.43 1031 3 4.82802 0 0
3:35 am 03:35 Clear with Mist and Fog 26 -3.4 25 -3.8 97 97 Calm 30.44 1031 3 4.82802 0 0
3:55 am 03:55 Clear with Mist and Fog 28 -2.4 27 -3 96 96 Calm 30.44 1031 7 11.26538 0 0
4:15 am 04:15 Clear with Mist and Fog 28 -2.2 26 -3.3 92 92 NE 3 6 30.44 1031 7 11.26538 0 0
4:35 am 04:35 Clear with Mist and Fog 29 -1.8 27 -2.9 92 92 NNE 3 6 30.45 1031 7 11.26538 0 0
4:55 am 04:55 Clear with Mist and Fog 28 -2.1 26 -3.3 92 92 NNE 3 6 30.46 1032 7 11.26538 0 0
5:15 am 05:15 Clear with Mist and Fog 28 -2.5 26 -3.6 92 92 Calm 30.46 1032 7 11.26538 0 0
5:35 am 05:35 Clear with Mist and Fog 27 -2.6 25 -3.9 91 91 NNE 3 6 30.47 1032 7 11.26538 0 0
5:55 am 05:55 Clear 27 -2.7 25 -4.1 90 90 NNE 3 6 30.48 1032 7 11.26538 0 0
6:15 am 06:15 Clear 27 -2.6 25 -4 90 90 Calm 30.49 1033 7 11.26538 0 0
6:35 am 06:35 Clear 27 -2.8 24 -4.4 89 89 NNE 3 6 30.5 1033 7 11.26538 0 0
6:55 am 06:55 Clear 27 -3 24 -4.5 90 90 NNE 3 6 30.51 1033 7 11.26538 0 0
7:15 am 07:15 Clear with Mist and Fog 27 -3 24 -4.5 90 90 N 6 9 30.51 1033 7 11.26538 0 0
7:35 am 07:35 Sunny with Mist and Fog 27 -3 24 -4.6 89 89 N 6 9 30.52 1034 7 11.26538 0 0
7:55 am 07:55 Sunny 27 -2.8 24 -4.5 88 88 N 5 7 30.53 1034 7 11.26538 0 0
8:15 am 08:15 Sunny 28 -2.3 24 -4.2 87 87 N 7 11 30.54 1034 7 11.26538 0 0
8:35 am 08:35 Sunny 29 -1.7 25 -3.9 85 85 N 7 11 30.55 1035 7 11.26538 0 0
8:55 am 08:55 Sunny 30 -1.3 25 -4.1 81 81 N 10 17 30.56 1035 10 16.0934 0 0
9:15 am 09:15 Sunny 30 -0.9 24 -4.2 79 79 N 14 22 30.57 1035 10 16.0934 0 0
9:35 am 09:35 Sunny 32 -0.2 26 -3.5 79 79 N 7 11 30.57 1035 10 16.0934 0 0
9:55 am 09:55 Sunny 32 0.1 24 -4.2 73 73 N 8 13 30.57 1035 10 16.0934 0 0
10:15 am 10:15 Sunny 33 0.6 25 -4.1 71 71 N 8 13 30.57 1035 10 16.0934 0 0
10:35 am 10:35 Sunny 34 1.1 25 -4.1 69 69 N 7 11 30.57 1035 10 16.0934 0 0
10:55 am 10:55 Sunny 35 1.4 24 -4.4 66 66 N 6 9 30.57 1035 10 16.0934 0 0
11:15 am 11:15 Sunny 35 1.6 23 -5 62 62 NNW 6 9 30.57 1035 10 16.0934 0 0
11:35 am 11:35 Sunny 37 2.8 24 -4.7 58 58 NW 5 7 30.57 1035 10 16.0934 0 0
11:55 am 11:55 Sunny 37 2.7 22 -5.4 56 56 NNW 8 13 30.57 1035 10 16.0934 0 0
12:15 pm 12:15 Sunny 38 3.2 23 -5 55 55 N 8 13 30.57 1035 10 16.0934 0 0
12:35 pm 12:35 Sunny 38 3.3 22 -5.4 53 53 NNE 6 9 30.57 1035 10 16.0934 0 0
12:55 pm 12:55 Sunny 39 3.9 21 -5.9 49 49 NNE 9 15 30.56 1035 10 16.0934 0 0
1:15 pm 13:15 Sunny 39 4.1 23 -5 52 52 NNW 8 13 30.54 1034 10 16.0934 0 0
1:35 pm 13:35 Sunny 40 4.5 23 -4.9 51 51 N 10 17 30.53 1034 10 16.0934 0 0
1:55 pm 13:55 Sunny 40 4.7 23 -5.2 49 49 N 9 15 30.53 1034 10 16.0934 0 0
2:15 pm 14:15 Sunny 41 4.9 23 -5.1 49 49 NW 8 13 30.53 1034 10 16.0934 0 0
2:35 pm 14:35 Sunny 41 4.9 22 -5.7 47 47 N 5 7 30.53 1034 10 16.0934 0 0
2:55 pm 14:55 Sunny 41 4.9 22 -5.7 47 47 N 3 6 30.52 1034 10 16.0934 0 0
3:15 pm 15:15 Sunny 41 5.2 23 -5 48 48 NE 9 15 30.52 1034 10 16.0934 0 0
3:35 pm 15:35 Sunny 42 5.3 23 -5.2 47 47 NE 8 13 30.51 1033 10 16.0934 0 0
3:55 pm 15:55 Sunny 41 4.8 23 -5.1 49 49 NNW 9 15 30.51 1033 10 16.0934 0 0
4:15 pm 16:15 Sunny 41 4.9 23 -5.2 48 48 N 10 17 30.52 1034 10 16.0934 0 0
4:35 pm 16:35 Sunny 40 4.6 23 -5.1 50 50 NNE 6 9 30.52 1034 10 16.0934 0 0
4:55 pm 16:55 Sunny 40 4.5 23 -5.2 50 50 N 7 11 30.52 1034 10 16.0934 0 0
5:15 pm 17:15 Sunny 39 4 23 -5.1 52 52 N 5 7 30.53 1034 10 16.0934 0 0
5:35 pm 17:35 Sunny 38 3.3 22 -5.3 54 54 N 6 9 30.53 1034 10 16.0934 0 0
5:55 pm 17:55 Sunny 37 2.5 22 -5.3 57 57 N 7 11 30.54 1034 10 16.0934 0 0
6:15 pm 18:15 Sunny 35 1.9 22 -5.7 57 57 N 5 7 30.54 1034 10 16.0934 0 0
6:35 pm 18:35 Clear 36 2 22 -5.7 57 57 NNE 3 6 30.53 1034 10 16.0934 0 0
6:55 pm 18:55 Clear 34 1.3 23 -5 63 63 N 3 6 30.53 1034 10 16.0934 0 0
7:15 pm 19:15 Clear 34 1 23 -5.1 64 64 N 3 6 30.53 1034 10 16.0934 0 0
7:35 pm 19:35 Clear 32 -0.1 24 -4.5 73 73 N 3 6 30.55 1034 10 16.0934 0 0
7:55 pm 19:55 Clear 31 -0.4 23 -5 71 71 NNW 3 6 30.54 1034 10 16.0934 0 0
8:15 pm 20:15 Clear 31 -0.8 24 -4.7 75 75 N 3 6 30.54 1034 10 16.0934 0 0
8:35 pm 20:35 Clear 30 -1 23 -5 75 75 N 5 7 30.54 1034 10 16.0934 0 0
8:55 pm 20:55 Clear 31 -0.7 23 -5.1 72 72 N 5 7 30.55 1034 10 16.0934 0 0
9:15 pm 21:15 Clear 30 -0.9 24 -4.7 76 76 Calm 30.56 1035 10 16.0934 0 0
9:35 pm 21:35 Clear 31 -0.8 23 -5 74 74 Calm 30.56 1035 10 16.0934 0 0
9:55 pm 21:55 Clear 30 -1 24 -4.5 77 77 Calm 30.56 1035 10 16.0934 0 0
10:15 pm 22:15 Clear 30 -1.2 23 -5 76 76 E 3 6 30.56 1035 10 16.0934 0 0
10:35 pm 22:35 Clear 30 -1.1 24 -4.6 77 77 Calm 30.56 1035 10 16.0934 0 0
10:55 pm 22:55 Clear 29 -1.6 24 -4.2 83 83 Calm 30.56 1035 10 16.0934 0 0
11:15 pm 23:15 Clear 29 -1.5 24 -4.3 81 81 Calm 30.55 1035 10 16.0934 0 0
11:35 pm 23:35 Clear 28 -2.4 23 -4.9 83 83 Calm 30.55 1035 10 16.0934 0 0
11:55 pm 23:55 Clear 29 -1.7 23 -4.8 80 80 Calm 30.56 1035 10 16.0934 0 0

Powered by AerisWeather